Big Piney, WY

11:26 PM MST on December 10, 2017 (GMT -0700)
Big Piney-Marbleton

Weather History for KBPI - March, 2012

Change the Weather History Date:

Saturday, March 17, 2012

  Actual Average Record
Temperature  
Mean Temperature 42 °F 28 °F  
Max Temperature 54 °F 42 °F 64 °F (2007)
Min Temperature 32 °F 14 °F -14 °F (1980)
Degree Days  
Heating Degree Days 22 37  
Month to date heating degree days 693  
Since 1 July heating degree days 8216  
Cooling Degree Days 0 0  
Month to date cooling degree days 0  
Year to date cooling degree days 0  
Moisture  
Dew Point 29 °F    
Average Humidity 64    
Maximum Humidity 86    
Minimum Humidity 34    
Precipitation  
Precipitation 0.00 in 0.01 in 0.14 in (1983)
Month to date precipitation 0.20  
Year to date precipitation 0.86  
Sea Level Pressure  
Sea Level Pressure 29.51 in    
Wind  
Wind Speed 8 mph (South)    
Max Wind Speed 24 mph    
Max Gust Speed 31 mph    
Visibility 10 miles    
Events      
T = Trace of Precipitation, MM = Missing Value Source: NWS Daily Summary

Daily Weather History Graph

Daily Weather History Graph

Search for Another Location

Airport or City:

Trip Planner

Search our weather history database for the weather conditions in past years. The results will help you decide how hot, cold, wet, or windy it might be!

Date:

Astronomy

Mar. 17, 2012 Rise Set
Actual Time 7:27 AM MDT 7:29 PM MDT
Civil Twilight 6:59 AM MDT 7:58 PM MDT
Nautical Twilight 6:27 AM MDT 8:30 PM MDT
Astronomical Twilight 5:53 AM MDT 9:04 PM MDT
Moon 4:37 AM MDT (3/17) 2:52 PM MDT (3/17)
Length of Visible Light 12h 58m
Length of Day
12h 01m
Waning Crescent, 22% of the Moon is Illuminated
Mar 17
Waning Crescent
Mar 22
New
Mar 30
First Quarter
Apr 6
Full
Apr 13
Last Quarter

Hourly Weather History & Observations

Time (MDT) Temp. Windchill Dew Point Humidity Pressure Visibility Wind Dir Wind Speed Gust Speed Precip Events Conditions
12:53 AM 39.0 °F 34.8 °F 30.0 °F 70% 29.57 in 10.0 mi South 5.8 mph - N/A   Overcast
1:53 AM 37.9 °F 35.5 °F 30.0 °F 73% 29.60 in 10.0 mi South 3.5 mph - N/A   Overcast
2:53 AM 39.0 °F 33.4 °F 30.0 °F 70% 29.57 in 10.0 mi South 8.1 mph - N/A   Overcast
3:53 AM 35.1 °F - 28.0 °F 76% 29.56 in 10.0 mi Calm Calm - N/A   Scattered Clouds
4:53 AM 32.0 °F - 26.1 °F 79% 29.57 in 10.0 mi Calm Calm - N/A   Clear
5:53 AM 33.1 °F 27.7 °F 27.0 °F 78% 29.57 in 10.0 mi East 5.8 mph - N/A   Mostly Cloudy
6:53 AM 34.0 °F 29.8 °F 28.0 °F 79% 29.57 in 10.0 mi SE 4.6 mph - N/A   Overcast
7:53 AM 36.0 °F 30.3 °F 28.9 °F 76% 29.57 in 10.0 mi South 6.9 mph - N/A   Overcast
8:53 AM 37.0 °F - 30.0 °F 76% 29.57 in 10.0 mi Calm Calm - N/A   Overcast
9:53 AM 41.0 °F 35.8 °F 28.9 °F 62% 29.53 in 10.0 mi SSE 8.1 mph - N/A   Mostly Cloudy
10:53 AM 46.0 °F 41.0 °F 28.0 °F 50% 29.51 in 10.0 mi South 10.4 mph - N/A   Scattered Clouds
11:53 AM 50.0 °F - 27.0 °F 41% 29.47 in 10.0 mi SSW 12.7 mph - N/A   Overcast
12:53 PM 48.9 °F - 28.0 °F 44% 29.50 in 10.0 mi SW 23.0 mph 31.1 mph N/A   Overcast
1:53 PM 48.0 °F - 30.9 °F 52% 29.47 in 10.0 mi SSW 12.7 mph - N/A   Partly Cloudy
2:53 PM 52.0 °F - 27.0 °F 38% 29.41 in 10.0 mi SSW 17.3 mph 24.2 mph N/A   Mostly Cloudy
3:53 PM 53.1 °F - 25.0 °F 34% 29.42 in 10.0 mi SSW 24.2 mph 31.1 mph 0.00 in   Mostly Cloudy
4:53 PM 51.1 °F - 27.0 °F 39% 29.43 in 10.0 mi South 24.2 mph 31.1 mph N/A   Mostly Cloudy
5:53 PM 48.0 °F - 26.1 °F 42% 29.44 in 10.0 mi South 21.9 mph 29.9 mph 0.00 in   Mostly Cloudy
6:33 PM 44.6 °F 36.6 °F 28.4 °F 53% 29.58 in 10.0 mi WSW 19.6 mph 27.6 mph N/A   Overcast
6:53 PM 42.1 °F 34.2 °F 32.0 °F 67% 29.50 in 10.0 mi West 16.1 mph 24.2 mph N/A   Overcast
7:53 PM 39.9 °F 33.9 °F 33.1 °F 77% 29.49 in 10.0 mi WNW 9.2 mph - 0.00 in   Overcast
8:53 PM 37.9 °F 34.4 °F 32.0 °F 79% 29.49 in 10.0 mi East 4.6 mph - N/A   Overcast
9:53 PM 36.0 °F 31.1 °F 32.0 °F 86% 29.48 in 10.0 mi NE 5.8 mph - N/A   Mostly Cloudy
10:53 PM 36.0 °F 32.1 °F 32.0 °F 86% 29.44 in 10.0 mi East 4.6 mph - N/A   Overcast
11:53 PM 34.0 °F - 28.9 °F 82% 29.43 in 10.0 mi Calm Calm - N/A   Clear